Flag for Switzerland Weather past 2 weeks in Fribourg, Fribourg, Switzerland

Now
61 °F

Light rain. Fog.


Feels Like: 61 °F
Forecast: 51 / 79 °F
Wind: 1 mph from North

Location: Payerne

Current Time: Aug 1, 2015 at 10:43:34 PM

Latest Report: Aug 1, 2015 at 9:50 PM


Visibility: 3 mi

Pressure: 30.07 "Hg (28.02 "Hg at 596m altitude)

Humidity: 100%

Dew point: 61 °F

Location of FribourgLocation

Historic Weather in Fribourg — Graph

°F

Fribourg temperature yesterday

Maximum temperature yesterday: 73 °F (at 2:50 PM)
Minimum temperature yesterday: 48 °F (at 5:50 AM)
Average temperature yesterday: 63 °F

Past Weeks' High & Low Weather Summary

 TemperatureHumidityPressure
High93 °F (Jul 21, 4:50 PM)100% (Jul 18, 8:50 AM)30.21 "Hg (Jul 18, 8:50 AM)
Low48 °F (Jul 31, 5:50 AM)34% (Jul 21, 4:50 PM)29.74 "Hg (Jul 24, 4:50 PM)
Average69 °F69%29.98 "Hg
* Reported Jul 18 4:50 AM — Aug 1 8:50 PM, Fribourg, Weather by CustomWeather, © 2015

Note: Actual official high and low records may vary slightly from our data, if they occured in-between our weather recording intervals... More about our weather records

Advertising

Fribourg weather history for previous 24 hours

 ConditionsComfort  
Time TempWeatherWind HumidityBarometerVisibility
8:50 PM
Sat, Aug 1
61 °FRain. Fog.No wind100%30.07 "Hg2 mi
7:50 PM63 °FSprinkles. Mostly cloudy.3 mph100%30.04 "Hg2 mi
6:50 PM66 °FBroken clouds.2 mph78%30.04 "HgN/A
5:50 PM66 °FPartly sunny.2 mph78%30.04 "HgN/A
4:50 PM66 °FPartly sunny.1 mph78%30.01 "HgN/A
3:50 PM66 °FBroken clouds.No wind78%30.01 "HgN/A
2:50 PM64 °FScattered clouds.1 mph78%30.01 "HgN/A
1:50 PM64 °FPartly sunny.1 mph78%30.01 "HgN/A
12:50 PM63 °FScattered clouds.3 mph88%30.01 "HgN/A
11:50 AM61 °FSprinkles. Scattered clouds.1 mph94%30.01 "HgN/A
10:50 AM61 °FLight rain. Mostly cloudy.2 mph100%30.04 "Hg3 mi
9:50 AM61 °FLight rain. Partly sunny.5 mph100%30.04 "Hg6 mi
8:50 AM59 °FLight rain. Passing clouds.No wind100%30.01 "HgN/A
7:50 AM59 °FRain. Partly sunny.No wind100%30.01 "Hg2 mi
6:50 AM59 °FRain. Partly cloudy.2 mph100%30.01 "HgN/A
5:50 AM59 °FRain. Mostly cloudy.3 mph100%29.98 "HgN/A
4:50 AM61 °FLight rain. Mostly cloudy.2 mph83%29.95 "HgN/A
2:50 AM59 °FPassing clouds.2 mph82%29.92 "HgN/A
1:50 AM59 °FPassing clouds.3 mph82%29.95 "HgN/A
12:50 AM59 °FPassing clouds.3 mph77%29.95 "HgN/A
11:50 PM
Fri, Jul 31
61 °FPassing clouds.5 mph72%29.95 "HgN/A
10:50 PM66 °FPassing clouds.No wind56%29.92 "HgN/A
Weather by CustomWeather, © 2015

See weather overviewHow to use our weather pages